This demonstration page uses our WeatherBlox Daily Observations layout. Learn more.

Left ArrowRight Arrow

Hourly Observations for July 31, 2016

Temp ( °F °C ) Dew Point ( °F °C ) Humidity (%) Winds ( mph kmh ) Pressure ( in mb ) Visibility ( mi km ) Precip ( " mm )
12:53 am 00:53 Clear 70 21.1 67 19.4 90 90 SE 10 17 29.88 1012 10 16 0.00 0.00
1:53 am 01:53 Clear 69 20.6 67 19.4 93 93 SE 9 15 29.88 1012 10 16 0.00 0.00
2:53 am 02:53 Clear 69 20.6 67 19.4 93 93 SE 10 17 29.85 1011 10 16 0.00 0.00
3:53 am 03:53 Mostly Clear 69 20.6 67 19.4 93 93 SSE 12 19 29.84 1011 10 16 0.00 0.00
4:53 am 04:53 Clear 69 20.6 67 19.4 93 93 SSE 10 17 29.84 1011 10 16 0.00 0.00
5:53 am 05:53 Mostly Clear 69 20.6 67 19.4 93 93 SE 10 17 29.82 1010 10 16 0.00 0.00
6:08 am 06:08 Mostly Cloudy 70 21 66 19 88 88 SE 8 13 29.83 1010 10 16 0.00 0.00
6:51 am 06:51 Mostly Sunny 70 21 66 19 88 88 SSE 7 11 29.83 1010 8 13 0.00 0.00
6:53 am 06:53 Mostly Sunny 69 20.6 67 19.4 93 93 SE 6 9 29.84 1010 9 14 0.00 0.00
7:39 am 07:39 Mostly Cloudy 70 21.1 68 20 93 93 N 12 19 29.91 1013 9 14 0.00 0.00
7:44 am 07:44 Partly Cloudy 70 21 68 20 94 94 N 8 13 29.91 1013 9 14 0.00 0.00
7:53 am 07:53 Partly Cloudy 70 21.1 68 20 93 93 NNE 8 13 29.92 1013 10 16 0.00 0.00
8:53 am 08:53 Partly Cloudy with Mist and Fog 70 21.1 68 20 93 93 NE 12 19 29.91 1013 5 8 0.00 0.00
9:53 am 09:53 Sunny 75 23.9 67 19.4 76 76 SE 13 20 29.85 1011 10 16 0.00 0.00
10:53 am 10:53 Sunny 79 26.1 67 19.4 67 67 SSE 15 24 29.84 1011 10 16 0.00 0.00
11:53 am 11:53 Sunny 82 27.8 64 17.8 55 55 S 15 24 29.82 1010 10 16 0.00 0.00
12:53 pm 12:53 Sunny 85 29.4 66 18.9 53 53 S 14 22 29.83 1010 10 16 0.00 0.00
1:53 pm 13:53 Sunny 87 30.6 67 19.4 51 51 S 14 22 29.83 1010 10 16 0.00 0.00
2:53 pm 14:53 Sunny 88 31.1 67 19.4 50 50 S 15 24 29.82 1010 10 16 0.00 0.00
3:53 pm 15:53 Sunny 89 31.7 68 20 50 50 SE 14 22 29.81 1009 10 16 0.00 0.00
4:53 pm 16:53 Sunny 89 31.7 67 19.4 48 48 SSE 14 22 29.80 1009 10 16 0.00 0.00
5:53 pm 17:53 Sunny 88 31.1 69 20.6 54 54 SSE 15 24 29.79 1009 10 16 0.00 0.00
6:53 pm 18:53 Sunny 87 30.6 72 22.2 61 61 ESE 16 26 29.78 1009 10 16 0.00 0.00
7:53 pm 19:53 Sunny 83 28.3 72 22.2 70 70 ESE 14 22 29.79 1009 10 16 0.00 0.00
8:53 pm 20:53 Clear 80 26.7 73 22.8 79 79 ESE 13 20 29.80 1009 10 16 0.00 0.00
9:53 pm 21:53 Clear 79 26.1 73 22.8 82 82 SE 16 26 29.81 1010 10 16 0.00 0.00
10:53 pm 22:53 Clear 77 25 73 22.8 88 88 ESE 16 26 29.82 1010 10 16 0.00 0.00
11:53 pm 23:53 Mostly Clear 75 23.9 73 22.8 94 94 SE 12 19 29.81 1009 10 16 0.00 0.00

Powered by AerisWeather